• en France
  • Liste des pays
  • À 7 jours
  • Température de l'eau
  • Carte satellitaire
  • Carte météo
  • Widgets météo
  • user-avatar
    Se connecter

    Météo par heure à Korhogo

    Ce jour, 16 Octobre, Mardi

    Heure Température Précipitation Vent Pression Humidité
    00:00 +25°C° 0.5 mm 1 m/s 726 mmHg 81%
    01:00 +25°C° 0.9 mm 1 m/s 726 mmHg 84%
    02:00 +25°C° 0.9 mm 1 m/s 726 mmHg 86%
    03:00 +24°C° 0.9 mm 1 m/s 726 mmHg 88%
    04:00 +24°C° 1.3 mm 1 m/s 726 mmHg 90%
    05:00 +24°C° 1.3 mm 1 m/s 726 mmHg 91%
    06:00 +24°C° 1.3 mm 1 m/s 726 mmHg 93%
    07:00 +23°C° 0.5 mm 0 m/s 727 mmHg 88%
    08:00 +25°C° 0.5 mm 0 m/s 727 mmHg 84%
    09:00 +26°C° 0.5 mm 0 m/s 728 mmHg 79%
    10:00 +30°C° 0.1 mm 1 m/s 728 mmHg 71%
    11:00 +31°C° 0.1 mm 2 m/s 727 mmHg 63%
    12:00 +34°C° 0.1 mm 2 m/s 727 mmHg 55%
    13:00 +34°C° 0.1 mm 2 m/s 726 mmHg 54%
    14:00 +35°C° 0.1 mm 3 m/s 726 mmHg 52%
    15:00 +35°C° 0.1 mm 3 m/s 725 mmHg 50%
    16:00 +34°C° 0 mm 2 m/s 725 mmHg 57%
    17:00 +31°C° 0 mm 2 m/s 725 mmHg 63%
    18:00 +30°C° 0 mm 1 m/s 725 mmHg 69%
    19:00 +29°C° 0.1 mm 1 m/s 725 mmHg 71%
    20:00 +28°C° 0.1 mm 1 m/s 726 mmHg 74%
    21:00 +27°C° 0.1 mm 1 m/s 726 mmHg 76%
    22:00 +27°C° 0.9 mm 1 m/s 726 mmHg 80%
    23:00 +26°C° 0.9 mm 1 m/s 726 mmHg 84%

    Demain, 17 Octobre, Mercredi

    Heure Température Précipitation Vent Pression Humidité
    00:00 +26°C° 0.9 mm 1 m/s 726 mmHg 88%
    01:00 +25°C° 0.7 mm 1 m/s 726 mmHg 90%
    02:00 +25°C° 0.7 mm 1 m/s 726 mmHg 91%
    03:00 +25°C° 0.7 mm 1 m/s 725 mmHg 93%
    04:00 +25°C° 1.3 mm 1 m/s 725 mmHg 93%
    05:00 +24°C° 1.3 mm 1 m/s 726 mmHg 94%
    06:00 +24°C° 1.3 mm 1 m/s 726 mmHg 94%
    07:00 +25°C° 0.1 mm 1 m/s 726 mmHg 90%
    08:00 +26°C° 0.1 mm 1 m/s 727 mmHg 87%
    09:00 +28°C° 0.1 mm 1 m/s 727 mmHg 83%
    10:00 +29°C° 0 mm 1 m/s 727 mmHg 76%
    11:00 +31°C° 0 mm 1 m/s 727 mmHg 68%
    12:00 +33°C° 0 mm 1 m/s 726 mmHg 60%
    13:00 +33°C° 0 mm 1 m/s 726 mmHg 58%
    14:00 +34°C° 0 mm 1 m/s 725 mmHg 56%
    15:00 +32°C° 0 mm 0 m/s 724 mmHg 53%
    16:00 +33°C° 0.1 mm 1 m/s 724 mmHg 59%
    17:00 +31°C° 0.1 mm 1 m/s 724 mmHg 64%
    18:00 +30°C° 0.1 mm 1 m/s 724 mmHg 70%
    19:00 +29°C° 0.5 mm 1 m/s 724 mmHg 74%
    20:00 +28°C° 0.5 mm 1 m/s 725 mmHg 77%
    21:00 +27°C° 0.5 mm 1 m/s 726 mmHg 81%
    22:00 +27°C° 0.9 mm 1 m/s 726 mmHg 84%
    23:00 +26°C° 0.9 mm 1 m/s 726 mmHg 88%

    Après-demain, 18 Octobre, Jeudi

    Heure Température Précipitation Vent Pression Humidité
    00:00 +25°C° 0.9 mm 1 m/s 726 mmHg 91%
    01:00 +25°C° 0.5 mm 1 m/s 725 mmHg 92%
    02:00 +25°C° 0.5 mm 2 m/s 725 mmHg 93%
    03:00 +25°C° 0.5 mm 2 m/s 724 mmHg 93%
    04:00 +25°C° 0 mm 2 m/s 724 mmHg 93%
    05:00 +25°C° 0 mm 2 m/s 724 mmHg 93%
    06:00 +24°C° 0 mm 3 m/s 724 mmHg 93%
    07:00 +25°C° 0 mm 3 m/s 725 mmHg 90%
    08:00 +27°C° 0 mm 3 m/s 725 mmHg 86%
    09:00 +28°C° 0 mm 3 m/s 726 mmHg 83%
    10:00 +29°C° 0.8 mm 3 m/s 725 mmHg 77%
    11:00 +31°C° 0.8 mm 3 m/s 725 mmHg 70%
    12:00 +32°C° 0.8 mm 2 m/s 725 mmHg 64%
    13:00 +31°C° 2.4 mm 2 m/s 724 mmHg 68%
    14:00 +30°C° 2.4 mm 2 m/s 724 mmHg 73%
    15:00 +29°C° 2.4 mm 1 m/s 723 mmHg 77%
    16:00 +28°C° 0 mm 1 m/s 723 mmHg 80%
    17:00 +27°C° 0 mm 1 m/s 723 mmHg 83%
    18:00 +27°C° 0 mm 1 m/s 723 mmHg 85%
    19:00 +26°C° 0 mm 1 m/s 723 mmHg 86%
    20:00 +26°C° 0 mm 1 m/s 724 mmHg 87%
    21:00 +25°C° 0 mm 1 m/s 724 mmHg 87%
    22:00 +25°C° 0 mm 1 m/s 725 mmHg 87%
    23:00 +25°C° 0 mm 1 m/s 725 mmHg 88%

    19 Octobre, Vendredi

    Heure Température Précipitation Vent Pression Humidité
    00:00 +25°C° 0 mm 1 m/s 725 mmHg 88%
    01:00 +25°C° 0 mm 1 m/s 724 mmHg 88%
    02:00 +25°C° 0 mm 1 m/s 724 mmHg 89%
    03:00 +24°C° 0 mm 1 m/s 723 mmHg 89%
    04:00 +24°C° 0 mm 2 m/s 724 mmHg 91%
    05:00 +24°C° 0 mm 2 m/s 724 mmHg 92%
    06:00 +24°C° 0 mm 2 m/s 724 mmHg 93%
    07:00 +25°C° 0 mm 2 m/s 725 mmHg 90%
    08:00 +26°C° 0 mm 2 m/s 725 mmHg 87%
    09:00 +27°C° 0 mm 3 m/s 726 mmHg 84%
    10:00 +28°C° 0 mm 3 m/s 725 mmHg 78%
    11:00 +29°C° 0 mm 2 m/s 725 mmHg 73%
    12:00 +31°C° 0 mm 2 m/s 725 mmHg 67%
    13:00 +31°C° 0 mm 2 m/s 724 mmHg 64%
    14:00 +32°C° 0 mm 2 m/s 724 mmHg 61%
    15:00 +32°C° 0 mm 1 m/s 723 mmHg 58%
    16:00 +31°C° 0 mm 1 m/s 723 mmHg 64%
    17:00 +30°C° 0 mm 1 m/s 723 mmHg 69%
    18:00 +26°C° 0 mm 0 m/s 723 mmHg 74%
    19:00 +28°C° 0 mm 1 m/s 724 mmHg 77%
    20:00 +27°C° 0 mm 1 m/s 724 mmHg 79%
    21:00 +26°C° 0 mm 1 m/s 725 mmHg 81%
    22:00 +26°C° 0 mm 1 m/s 725 mmHg 84%
    23:00 +26°C° 0 mm 1 m/s 724 mmHg 86%

    20 Octobre, Samedi

    Heure Température Précipitation Vent Pression Humidité
    00:00 +25°C° 0 mm 1 m/s 724 mmHg 88%
    01:00 +25°C° 0 mm 1 m/s 724 mmHg 90%
    02:00 +25°C° 0 mm 1 m/s 723 mmHg 92%
    03:00 +24°C° 0 mm 1 m/s 723 mmHg 93%
    04:00 +24°C° 0.1 mm 1 m/s 724 mmHg 94%
    05:00 +24°C° 0.1 mm 1 m/s 724 mmHg 94%
    06:00 +24°C° 0.1 mm 1 m/s 725 mmHg 94%
    07:00 +26°C° 0.1 mm 1 m/s 725 mmHg 87%
    08:00 +27°C° 0.1 mm 1 m/s 726 mmHg 80%
    09:00 +29°C° 0.1 mm 1 m/s 726 mmHg 73%
    10:00 +31°C° 0.1 mm 1 m/s 726 mmHg 66%
    11:00 +33°C° 0.1 mm 1 m/s 725 mmHg 59%
    12:00 +33°C° 0.1 mm 0 m/s 725 mmHg 52%
    13:00 +35°C° 0 mm 1 m/s 724 mmHg 51%
    14:00 +35°C° 0 mm 1 m/s 723 mmHg 50%
    15:00 +35°C° 0 mm 1 m/s 723 mmHg 48%
    16:00 +34°C° 0 mm 1 m/s 723 mmHg 53%
    17:00 +32°C° 0 mm 1 m/s 723 mmHg 58%
    18:00 +29°C° 0 mm 0 m/s 723 mmHg 62%
    19:00 +28°C° 0.1 mm 0 m/s 723 mmHg 65%
    20:00 +29°C° 0.1 mm 1 m/s 724 mmHg 68%
    21:00 +28°C° 0.1 mm 1 m/s 724 mmHg 71%
    22:00 +28°C° 0.3 mm 1 m/s 724 mmHg 74%
    23:00 +27°C° 0.3 mm 1 m/s 724 mmHg 78%

    21 Octobre, Dimanche

    Heure Température Précipitation Vent Pression Humidité
    00:00 +26°C° 0.3 mm 1 m/s 724 mmHg 82%
    01:00 +26°C° 0.9 mm 1 m/s 723 mmHg 86%
    02:00 +25°C° 0.9 mm 1 m/s 723 mmHg 89%
    03:00 +25°C° 0.9 mm 1 m/s 723 mmHg 92%
    04:00 +25°C° 0 mm 1 m/s 723 mmHg 93%
    05:00 +24°C° 0 mm 1 m/s 723 mmHg 93%
    06:00 +24°C° 0 mm 1 m/s 723 mmHg 94%
    07:00 +26°C° 0 mm 1 m/s 724 mmHg 87%
    08:00 +28°C° 0 mm 1 m/s 724 mmHg 81%
    09:00 +29°C° 0 mm 1 m/s 725 mmHg 74%
    10:00 +32°C° 0 mm 1 m/s 725 mmHg 66%
    11:00 +32°C° 0 mm 0 m/s 724 mmHg 58%
    12:00 +35°C° 0 mm 0 m/s 724 mmHg 51%
    13:00 +36°C° 0 mm 1 m/s 723 mmHg 49%
    14:00 +36°C° 0 mm 1 m/s 722 mmHg 48%
    15:00 +36°C° 0 mm 1 m/s 722 mmHg 46%
    16:00 +34°C° 0 mm 1 m/s 722 mmHg 52%
    17:00 +33°C° 0 mm 1 m/s 722 mmHg 57%
    18:00 +31°C° 0 mm 1 m/s 722 mmHg 63%
    19:00 +30°C° 0 mm 1 m/s 723 mmHg 66%
    20:00 +29°C° 0 mm 2 m/s 723 mmHg 70%
    21:00 +29°C° 0 mm 2 m/s 723 mmHg 74%
    22:00 +28°C° 0 mm 2 m/s 723 mmHg 77%
    23:00 +27°C° 0 mm 2 m/s 723 mmHg 81%
    Voir plus